Weather observations for the past three days for
Redwood Falls Municipal Airport
| Date | Time (cdt) | Wind (mph) | Vis. (mi.) | Weather | Sky Cond. | Temperature (ºF) | Relative Humidity | Wind Chill (°F) | Heat Index (°F) | Pressure | Precipitation (in) | ||||||
|---|---|---|---|---|---|---|---|---|---|---|---|---|---|---|---|---|---|
| Air | Dwpt | 6 hour | altimeter (in) | sea level (mb) | 1 hr | 3 hr | 6 hr | ||||||||||
| Max. | Min. | ||||||||||||||||
| 04 | 13:53 | W 26 G 37 | 10.00 | Fair and Windy | CLR | 59 | 28 | 31% | 29.61 | 1002.8 | |||||||
| 04 | 12:53 | NW 16 G 33 | 10.00 | A Few Clouds | FEW090 FEW110 | 55.9 | 28.9 | 61 | 55 | 36% | 29.6 | 1002.6 | |||||
| 04 | 11:53 | NW 17 G 36 | 10.00 | Fair | CLR | 60.1 | 30 | 32% | 29.58 | 1001.5 | |||||||
| 04 | 10:53 | NW 15 G 30 | 10.00 | Fair | CLR | 59 | 34 | 39% | 29.56 | 1001.0 | |||||||
| 04 | 09:53 | NW 18 G 30 | 10.00 | Fair | CLR | 57.9 | 35.1 | 42% | 29.55 | 1000.7 | |||||||
| 04 | 08:53 | NW 16 G 25 | 10.00 | Fair | CLR | 57 | 35.1 | 44% | 29.54 | 1000.3 | |||||||
| 04 | 07:53 | NW 14 G 26 | 10.00 | Fair | CLR | 55 | 37 | 51% | 29.53 | 999.8 | |||||||
| 04 | 06:53 | NW 15 G 26 | 10.00 | Fair | CLR | 55.9 | 37 | 59 | 52 | 49% | 29.5 | 998.7 | |||||
| 04 | 05:53 | W 16 G 25 | 10.00 | Fair | CLR | 57 | 34 | 42% | 29.47 | 997.6 | |||||||
| 04 | 04:53 | SW 18 | 10.00 | Fair | CLR | 57 | 32 | 39% | 29.44 | 996.6 | |||||||
| 04 | 03:53 | SW 15 | 10.00 | Fair | CLR | 53.1 | 30.9 | 43% | 29.46 | 997.5 | |||||||
| 04 | 02:53 | SW 15 | 10.00 | Fair | CLR | 53.1 | 30.9 | 43% | 29.49 | 998.6 | |||||||
| 04 | 01:53 | SW 13 | 10.00 | Fair | CLR | 53.1 | 32 | 45% | 29.53 | 999.8 | |||||||
| 04 | 00:53 | SW 13 | 10.00 | Fair | CLR | 52 | 30.9 | 70 | 52 | 45% | 29.57 | 1001.3 | |||||
| 03 | 23:53 | SW 9 | 10.00 | Fair | CLR | 57 | 27 | 32% | 29.6 | 1002.3 | |||||||
| 03 | 22:53 | SW 9 | 10.00 | Fair | CLR | 55 | 30 | 38% | 29.63 | 1003.2 | |||||||
| 03 | 21:53 | SW 8 | 10.00 | Fair | CLR | 59 | 28.9 | 32% | 29.65 | 1004.0 | |||||||
| 03 | 20:53 | SW 7 | 10.00 | Fair | CLR | 64.9 | 28 | 25% | 29.66 | 1004.3 | |||||||
| 03 | 19:53 | W 8 | 10.00 | Fair | CLR | 66.9 | 30 | 25% | 29.67 | 1004.5 | |||||||
| 03 | 18:53 | W 16 G 22 | 10.00 | Fair | CLR | 70 | 30.9 | 71.1 | 66 | 23% | 29.68 | 1004.9 | |||||
| 03 | 17:53 | NW 14 | 10.00 | Fair | CLR | 71.1 | 30 | 22% | 29.7 | 1005.7 | |||||||
| 03 | 16:53 | NW 12 | 10.00 | Fair | CLR | 71.1 | 30.9 | 23% | 29.72 | 1006.2 | |||||||
| 03 | 15:53 | W 13 G 22 | 10.00 | Fair | CLR | 70 | 33.1 | 26% | 29.74 | 1007.0 | |||||||
| 03 | 14:53 | NW 17 G 24 | 10.00 | Fair | CLR | 69.1 | 34 | 27% | 29.76 | 1007.8 | |||||||
| 03 | 13:53 | NW 16 G 23 | 10.00 | Fair | CLR | 69.1 | 34 | 27% | 29.78 | 1008.3 | |||||||
| 03 | 12:53 | NW 15 G 30 | 10.00 | Fair | CLR | 66.9 | 34 | 66.9 | 48.9 | 30% | 29.8 | 1008.9 | |||||
| 03 | 11:53 | NW 17 G 32 | 10.00 | Fair | CLR | 64.9 | 35.1 | 33% | 29.81 | 1009.4 | |||||||
| 03 | 10:53 | NW 14 G 28 | 10.00 | Fair | CLR | 64 | 37 | 37% | 29.81 | 1009.4 | |||||||
| 03 | 09:53 | NW 13 G 24 | 10.00 | Fair | CLR | 59 | 39 | 48% | 29.81 | 1009.3 | |||||||
| 03 | 08:53 | NW 15 G 23 | 10.00 | Fair | CLR | 55.9 | 37.9 | 51% | 29.8 | 1009.0 | |||||||
| 03 | 07:53 | NW 10 G 21 | 10.00 | Fair | CLR | 51.1 | 36 | 56% | 29.77 | 1008.2 | |||||||
| 03 | 06:53 | NW 13 G 22 | 10.00 | Fair | CLR | 48.9 | 35.1 | 61 | 48.9 | 59% | 44 | 29.74 | 1007.0 | ||||
| 03 | 05:53 | NW 15 | 10.00 | Fair | CLR | 48.9 | 35.1 | 59% | 44 | 29.71 | 1006.2 | ||||||
| 03 | 04:53 | W 13 | 10.00 | Fair | CLR | 48.9 | 37 | 64% | 44 | 29.71 | 1005.8 | ||||||
| 03 | 03:53 | W 14 | 10.00 | Fair | CLR | 52 | 36 | 55% | 29.7 | 1005.5 | |||||||
| 03 | 02:53 | SW 9 | 10.00 | Fair | CLR | 52 | 32 | 47% | 29.69 | 1005.4 | |||||||
| 03 | 01:53 | S 12 | 10.00 | Partly Cloudy | SCT110 | 57 | 30 | 36% | 29.71 | 1005.7 | |||||||
| 03 | 00:53 | S 18 G 29 | 10.00 | Mostly Cloudy | BKN100 BKN110 | 61 | 28.9 | 64.9 | 59 | 30% | 29.72 | 1006.2 | |||||
| 02 | 23:53 | S 14 | 10.00 | Overcast | FEW055 BKN095 OVC110 | 61 | 32 | 34% | 29.75 | 1007.4 | |||||||
| 02 | 22:53 | SE 9 | 10.00 | Overcast | FEW050 BKN090 OVC110 | 61 | 30.9 | 32% | 29.77 | 1008.1 | |||||||
| 02 | 21:53 | S 10 G 17 | 10.00 | Overcast | FEW055 OVC095 | 62.1 | 30 | 30% | 29.8 | 1009.3 | |||||||
| 02 | 20:53 | S 13 | 10.00 | Overcast | OVC100 | 62.1 | 30.9 | 31% | 29.79 | 1009.0 | |||||||
| 02 | 19:53 | S 6 | 10.00 | Overcast | OVC100 | 64 | 32 | 30% | 29.82 | 1010.2 | |||||||
| 02 | 18:53 | S 5 | 10.00 | Overcast | OVC100 | 64 | 30.9 | 70 | 63 | 29% | 29.85 | 1011.1 | |||||
| 02 | 17:53 | W 12 G 24 | 10.00 | Mostly Cloudy | BKN110 | 66 | 28 | 24% | 29.86 | 1011.6 | |||||||
| 02 | 16:53 | SW 14 G 25 | 10.00 | A Few Clouds | FEW090 | 68 | 28 | 22% | 29.87 | 1011.7 | |||||||
| 02 | 15:53 | SW 16 G 23 | 10.00 | Fair | CLR | 69.1 | 28.9 | 22% | 29.9 | 1012.6 | |||||||
| 02 | 14:53 | SW 14 G 24 | 10.00 | Fair | CLR | 66.9 | 30.9 | 26% | 29.92 | 1013.5 | |||||||
| 02 | 13:53 | W 8 | 10.00 | Fair | CLR | 66 | 30 | 26% | 29.96 | 1014.7 | |||||||
| 02 | 12:53 | SW 14 G 20 | 10.00 | Fair | CLR | 64 | 28.9 | 64 | 36 | 27% | 29.99 | 1015.9 | |||||
| 02 | 11:53 | W 10 G 18 | 10.00 | Fair | CLR | 60.1 | 28 | 30% | 30.03 | 1017.2 | |||||||
| 02 | 10:53 | W 14 | 10.00 | Fair | CLR | 57.9 | 27 | 31% | 30.05 | 1018.0 | |||||||
| 02 | 09:53 | SW 13 | 10.00 | Fair | CLR | 54 | 28 | 37% | 30.07 | 1018.7 | |||||||
| 02 | 08:53 | SW 13 | 10.00 | Fair | CLR | 48 | 28 | 46% | 43 | 30.08 | 1019.3 | ||||||
| 02 | 07:53 | SW 7 | 10.00 | Fair | CLR | 42.1 | 27 | 55% | 38 | 30.1 | 1019.8 | ||||||
| 02 | 06:53 | SW 7 | 10.00 | Fair | CLR | 36 | 26.1 | 41 | 34 | 67% | 31 | 30.09 | 1019.8 | ||||
| 02 | 05:53 | SW 7 | 10.00 | Fair | CLR | 35.1 | 26.1 | 70% | 30 | 30.1 | 1019.9 | ||||||
| 02 | 04:53 | W 3 | 10.00 | Fair | CLR | 36 | 26.1 | 67% | 30.1 | 1020.1 | |||||||
| 02 | 03:53 | W 5 | 10.00 | Fair | CLR | 36 | 26.1 | 67% | 33 | 30.1 | 1019.9 | ||||||
| 02 | 02:53 | SW 5 | 10.00 | Fair | CLR | 36 | 27 | 70% | 33 | 30.1 | 1020.0 | ||||||
| 02 | 01:53 | SW 5 | 10.00 | Fair | CLR | 37.9 | 26.1 | 62% | 35 | 30.11 | 1020.2 | ||||||
| 02 | 00:53 | SW 5 | 10.00 | Fair | CLR | 41 | 25 | 52 | 39 | 53% | 38 | 30.11 | 1020.5 | ||||
| 01 | 23:53 | W 5 | 10.00 | Fair | CLR | 41 | 25 | 53% | 38 | 30.11 | 1020.3 | ||||||
| 01 | 22:53 | SW 5 | 10.00 | Fair | CLR | 41 | 25 | 53% | 38 | 30.11 | 1020.3 | ||||||
| 01 | 21:53 | SW 3 | 10.00 | Fair | CLR | 45 | 25 | 46% | 30.11 | 1020.3 | |||||||
| 01 | 20:53 | Calm | 10.00 | Fair | CLR | 48 | 21.9 | 36% | 30.1 | 1020.0 | |||||||
| 01 | 19:53 | N 3 | 10.00 | Fair | CLR | 51.1 | 21 | 31% | 30.08 | 1019.4 | |||||||
| 01 | 18:53 | W 9 | 10.00 | Partly Cloudy | SCT070 | 52 | 21.9 | 54 | 48 | 31% | 30.08 | 1019.4 | |||||
| 01 | 17:53 | Vrbl 6 | 10.00 | Mostly Cloudy | BKN070 | 52 | 23 | 32% | 30.08 | 1019.4 | |||||||
| 01 | 16:53 | Vrbl 5 G 18 | 10.00 | Overcast | OVC060 | 54 | 25 | 33% | 30.09 | 1019.7 | |||||||
| 01 | 15:53 | Vrbl 7 | 10.00 | Overcast | OVC065 | 51.1 | 25 | 36% | 30.1 | 1020.1 | |||||||
| 01 | 14:53 | N 7 | 10.00 | Overcast | OVC060 | 48.9 | 25 | 39% | 46 | 30.11 | 1020.2 | ||||||
| Date | Time (cdt) | Wind (mph) | Vis. (mi.) | Weather | Sky Cond. | Air | Dwpt | Max. | Min. | Relative Humidity | Wind Chill (°F) | Heat Index (°F) | altimeter (in) | sea level (mb) | 1 hr | 3 hr | 6 hr |
| 6 hour | |||||||||||||||||
| Temperature (ºF) | Pressure | Precipitation (in) | |||||||||||||||